Time,TemperatureF,DewpointF,PressureIn,WindDirection,WindDirectionDegrees,WindSpeedMPH,WindSpeedGustMPH,Humidity,HourlyPrecipIn,Conditions,Clouds,dailyrainin,SoftwareType,DateUTC
2013-09-29 00:01:00,68.7,54.3,29.79,South,185,2.0,4.0,60,0.00,,BKN024,0.00,VWS V14.01,2013-09-29 04:01:00,
2013-09-29 00:02:00,68.8,53.9,29.79,SW,225,7.0,8.0,59,0.00,,BKN033,0.00,VWS V14.01,2013-09-29 04:02:00,
2013-09-29 00:07:00,69.2,54.3,29.79,SW,234,5.0,6.0,59,0.00,,BKN033,0.00,VWS V14.01,2013-09-29 04:07:00,
2013-09-29 00:12:00,69.4,54.0,29.79,SE,144,5.0,22.0,58,0.00,,BKN033,0.00,VWS V14.01,2013-09-29 04:12:00,
2013-09-29 00:17:00,69.7,54.3,29.79,SW,226,8.0,10.0,58,0.00,,BKN033,0.00,VWS V14.01,2013-09-29 04:17:00,
2013-09-29 00:22:00,69.7,53.8,29.79,SW,216,9.0,14.0,57,0.00,,BKN033,0.00,VWS V14.01,2013-09-29 04:22:00,
2013-09-29 00:27:00,69.8,53.9,29.79,SW,215,4.0,5.0,57,0.00,,BKN033,0.00,VWS V14.01,2013-09-29 04:27:00,
2013-09-29 00:32:00,69.7,53.8,29.79,South,180,5.0,5.0,57,0.00,,BKN033,0.00,VWS V14.01,2013-09-29 04:32:00,
2013-09-29 00:37:00,69.7,53.8,29.79,SSW,211,3.0,12.0,57,0.00,,BKN033,0.00,VWS V14.01,2013-09-29 04:37:00,
2013-09-29 00:42:00,69.7,53.8,29.79,SSW,198,7.0,11.0,57,0.00,,BKN033,0.00,VWS V14.01,2013-09-29 04:42:00,
2013-09-29 00:47:00,69.7,53.8,29.79,WSW,252,8.0,9.0,57,0.00,,BKN033,0.00,VWS V14.01,2013-09-29 04:47:00,
2013-09-29 00:52:00,69.8,53.9,29.79,SW,216,9.0,9.0,57,0.00,,BKN033,0.00,VWS V14.01,2013-09-29 04:52:00,
2013-09-29 00:57:00,69.7,54.3,29.79,SSW,204,5.0,5.0,58,0.00,,BKN033,0.00,VWS V14.01,2013-09-29 04:57:00,
2013-09-29 01:02:00,69.7,54.3,29.78,WSW,253,7.0,9.0,58,0.00,,OVC041,0.00,VWS V14.01,2013-09-29 05:02:00,
2013-09-29 01:07:00,69.6,54.2,29.79,South,174,8.0,8.0,58,0.00,,OVC041,0.00,VWS V14.01,2013-09-29 05:07:00,
2013-09-29 01:13:00,69.5,54.6,29.78,ESE,121,4.0,12.0,59,0.00,,OVC041,0.00,VWS V14.01,2013-09-29 05:13:00,
2013-09-29 01:18:00,69.6,54.7,29.79,SW,221,6.0,7.0,59,0.00,,OVC041,0.00,VWS V14.01,2013-09-29 05:18:00,
2013-09-29 01:23:00,69.6,55.1,29.79,SSW,201,3.0,3.0,60,0.00,,OVC041,0.00,VWS V14.01,2013-09-29 05:23:00,
2013-09-29 01:28:00,69.2,55.6,29.80,SW,217,4.0,4.0,62,0.00,,OVC041,0.00,VWS V14.01,2013-09-29 05:28:00,
2013-09-29 01:33:00,68.7,56.9,29.80,West,259,10.0,10.0,66,0.00,,OVC041,0.00,VWS V14.01,2013-09-29 05:33:00,
2013-09-29 01:38:00,67.5,57.8,29.81,SW,232,13.0,13.0,71,0.01,,OVC041,0.01,VWS V14.01,2013-09-29 05:38:00,
2013-09-29 01:43:00,65.8,58.4,29.81,SW,228,9.0,12.0,77,0.02,,OVC041,0.02,VWS V14.01,2013-09-29 05:43:00,
2013-09-29 01:48:00,64.5,58.2,29.81,SW,236,7.0,7.0,80,0.02,,OVC041,0.02,VWS V14.01,2013-09-29 05:48:00,
2013-09-29 01:53:00,63.7,58.5,29.80,WSW,247,5.0,6.0,83,0.03,,OVC041,0.03,VWS V14.01,2013-09-29 05:53:00,
2013-09-29 01:58:00,63.1,58.2,29.80,SSW,210,5.0,5.0,84,0.03,,OVC041,0.03,VWS V14.01,2013-09-29 05:58:00,
2013-09-29 02:03:00,62.7,58.5,29.80,SW,221,6.0,6.0,86,0.03,,BKN036,0.03,VWS V14.01,2013-09-29 06:03:00,
2013-09-29 02:08:00,62.5,58.6,29.80,WSW,240,6.0,6.0,87,0.03,,BKN036,0.03,VWS V14.01,2013-09-29 06:08:00,
2013-09-29 02:14:00,62.3,58.4,29.80,SW,224,5.0,5.0,87,0.03,,BKN036,0.03,VWS V14.01,2013-09-29 06:14:00,
2013-09-29 02:19:00,62.2,58.6,29.81,SW,223,3.0,4.0,88,0.03,,BKN036,0.03,VWS V14.01,2013-09-29 06:19:00,
2013-09-29 02:24:00,62.2,58.6,29.81,SW,231,3.0,3.0,88,0.03,,BKN036,0.03,VWS V14.01,2013-09-29 06:24:00,
2013-09-29 02:29:00,62.1,58.5,29.81,SSW,204,4.0,5.0,88,0.03,,BKN036,0.03,VWS V14.01,2013-09-29 06:29:00,
2013-09-29 02:34:00,62.1,58.8,29.81,WSW,256,7.0,7.0,89,0.03,,BKN036,0.03,VWS V14.01,2013-09-29 06:34:00,
2013-09-29 02:39:00,62.1,59.1,29.81,WNW,283,8.0,9.0,90,0.03,,BKN036,0.03,VWS V14.01,2013-09-29 06:39:00,
2013-09-29 02:44:00,62.1,59.8,29.81,NW,311,0.0,3.0,92,0.04,,BKN036,0.04,VWS V14.01,2013-09-29 06:44:00,
2013-09-29 02:49:00,62.1,60.1,29.81,WSW,250,1.0,3.0,93,0.05,,BKN036,0.05,VWS V14.01,2013-09-29 06:49:00,
2013-09-29 02:54:00,62.2,60.5,29.81,NNW,338,5.0,8.0,94,0.07,,BKN036,0.07,VWS V14.01,2013-09-29 06:54:00,
2013-09-29 02:59:00,62.1,60.4,29.81,NW,322,3.0,3.0,94,0.08,,BKN036,0.08,VWS V14.01,2013-09-29 06:59:00,
2013-09-29 03:04:00,62.1,60.4,29.81,SW,217,3.0,4.0,94,0.06,,CLR,0.09,VWS V14.01,2013-09-29 07:04:00,
2013-09-29 03:09:00,62.0,60.3,29.81,WNW,283,4.0,4.0,94,0.08,,CLR,0.11,VWS V14.01,2013-09-29 07:09:00,
2013-09-29 03:14:00,62.0,60.3,29.81,NW,321,1.0,2.0,94,0.08,,CLR,0.11,VWS V14.01,2013-09-29 07:14:00,
2013-09-29 03:19:00,61.9,60.2,29.81,NW,306,8.0,8.0,94,0.09,,CLR,0.12,VWS V14.01,2013-09-29 07:19:00,
2013-09-29 03:24:00,61.8,60.1,29.81,WSW,248,8.0,8.0,94,0.10,,CLR,0.13,VWS V14.01,2013-09-29 07:24:00,
2013-09-29 03:29:00,61.7,60.3,29.82,North,7,4.0,4.0,95,0.11,,CLR,0.14,VWS V14.01,2013-09-29 07:29:00,
2013-09-29 03:34:00,61.3,59.6,29.82,NNW,344,3.0,5.0,94,0.11,,CLR,0.14,VWS V14.01,2013-09-29 07:34:00,
2013-09-29 03:39:00,60.8,58.8,29.82,WNW,290,3.0,4.0,93,0.12,,CLR,0.15,VWS V14.01,2013-09-29 07:39:00,
2013-09-29 03:44:00,60.2,58.2,29.83,NNW,343,3.0,8.0,93,0.14,,CLR,0.17,VWS V14.01,2013-09-29 07:44:00,
2013-09-29 03:49:00,59.6,57.6,29.83,West,273,4.0,6.0,93,0.15,,CLR,0.18,VWS V14.01,2013-09-29 07:49:00,
2013-09-29 03:54:00,59.2,57.5,29.83,NE,42,2.0,2.0,94,0.16,,CLR,0.19,VWS V14.01,2013-09-29 07:54:00,
2013-09-29 03:59:00,58.9,57.2,29.83,NW,325,5.0,5.0,94,0.17,,CLR,0.20,VWS V14.01,2013-09-29 07:59:00,
2013-09-29 04:04:00,58.6,56.6,29.83,NNW,331,6.0,9.0,93,0.11,,CLR,0.20,VWS V14.01,2013-09-29 08:04:00,
2013-09-29 04:09:00,57.9,55.9,29.84,WNW,283,3.0,3.0,93,0.12,,CLR,0.21,VWS V14.01,2013-09-29 08:09:00,
2013-09-29 04:14:00,57.4,55.4,29.86,NNW,335,8.0,8.0,93,0.12,,CLR,0.21,VWS V14.01,2013-09-29 08:14:00,
2013-09-29 04:19:00,56.5,53.6,29.85,NW,326,8.0,11.0,90,0.12,,CLR,0.21,VWS V14.01,2013-09-29 08:19:00,
2013-09-29 04:24:00,55.9,53.3,29.84,NNW,345,5.0,5.0,91,0.13,,CLR,0.22,VWS V14.01,2013-09-29 08:24:00,
2013-09-29 04:30:00,55.5,52.6,29.84,WNW,302,3.0,8.0,90,0.13,,CLR,0.22,VWS V14.01,2013-09-29 08:30:00,
2013-09-29 04:35:00,55.2,52.6,29.83,NNW,346,3.0,3.0,91,0.09,,CLR,0.23,VWS V14.01,2013-09-29 08:35:00,
2013-09-29 04:40:00,55.1,52.8,29.84,North,352,3.0,3.0,92,0.09,,CLR,0.23,VWS V14.01,2013-09-29 08:40:00,
2013-09-29 04:45:00,55.0,52.7,29.83,NW,320,1.0,2.0,92,0.09,,CLR,0.23,VWS V14.01,2013-09-29 08:45:00,
2013-09-29 04:50:00,54.9,52.6,29.85,NNW,343,1.0,2.0,92,0.09,,CLR,0.23,VWS V14.01,2013-09-29 08:50:00,
2013-09-29 04:55:00,54.9,52.9,29.84,NNW,348,2.0,2.0,93,0.09,,CLR,0.23,VWS V14.01,2013-09-29 08:55:00,
2013-09-29 05:00:00,54.9,53.2,29.84,NNE,18,2.0,3.0,94,0.09,,CLR,0.23,VWS V14.01,2013-09-29 09:00:00,
2013-09-29 05:05:00,55.0,53.3,29.84,North,357,1.0,2.0,94,0.03,,CLR,0.23,VWS V14.01,2013-09-29 09:05:00,
2013-09-29 05:10:00,55.2,53.5,29.84,NNW,333,3.0,3.0,94,0.03,,CLR,0.23,VWS V14.01,2013-09-29 09:10:00,
2013-09-29 05:15:00,55.4,53.7,29.84,NW,323,6.0,8.0,94,0.03,,CLR,0.23,VWS V14.01,2013-09-29 09:15:00,
2013-09-29 05:20:00,55.6,53.9,29.85,NNW,338,3.0,3.0,94,0.03,,CLR,0.23,VWS V14.01,2013-09-29 09:20:00,
2013-09-29 05:25:00,55.8,53.8,29.85,North,351,2.0,4.0,93,0.03,,CLR,0.23,VWS V14.01,2013-09-29 09:25:00,
2013-09-29 05:30:00,56.0,54.0,29.86,North,2,3.0,3.0,93,0.03,,CLR,0.23,VWS V14.01,2013-09-29 09:30:00,
2013-09-29 05:35:00,56.0,53.7,29.86,NNW,348,2.0,2.0,92,0.01,,CLR,0.23,VWS V14.01,2013-09-29 09:35:00,
2013-09-29 05:40:00,56.0,53.4,29.86,North,2,4.0,6.0,91,0.01,,CLR,0.23,VWS V14.01,2013-09-29 09:40:00,
2013-09-29 05:45:00,55.9,53.3,29.86,NW,306,4.0,4.0,91,0.01,,CLR,0.23,VWS V14.01,2013-09-29 09:45:00,
2013-09-29 05:50:00,55.9,53.3,29.87,NW,320,3.0,5.0,91,0.01,,CLR,0.23,VWS V14.01,2013-09-29 09:50:00,
2013-09-29 05:55:00,55.9,53.3,29.87,NW,323,2.0,2.0,91,0.01,,CLR,0.23,VWS V14.01,2013-09-29 09:55:00,
2013-09-29 06:00:00,55.9,53.3,29.88,West,274,3.0,3.0,91,0.01,,CLR,0.23,VWS V14.01,2013-09-29 10:00:00,
2013-09-29 06:05:00,55.9,53.3,29.87,NW,322,2.0,3.0,91,0.00,,CLR,0.23,VWS V14.01,2013-09-29 10:05:00,
2013-09-29 06:10:00,55.8,53.2,29.87,NNW,338,3.0,5.0,91,0.00,,CLR,0.23,VWS V14.01,2013-09-29 10:10:00,
2013-09-29 06:15:00,55.8,53.2,29.88,NW,321,4.0,4.0,91,0.00,,CLR,0.23,VWS V14.01,2013-09-29 10:15:00,
2013-09-29 06:20:00,55.9,53.3,29.87,North,7,2.0,3.0,91,0.00,,CLR,0.23,VWS V14.01,2013-09-29 10:20:00,
2013-09-29 06:25:00,55.9,53.0,29.87,North,7,8.0,8.0,90,0.00,,CLR,0.23,VWS V14.01,2013-09-29 10:25:00,
2013-09-29 06:30:00,55.8,52.6,29.87,NNW,348,4.0,4.0,89,0.00,,CLR,0.23,VWS V14.01,2013-09-29 10:30:00,
2013-09-29 06:35:00,55.8,52.3,29.88,NW,315,4.0,5.0,88,0.00,,CLR,0.23,VWS V14.01,2013-09-29 10:35:00,
2013-09-29 06:40:00,55.7,52.2,29.88,NNW,348,3.0,4.0,88,0.00,,CLR,0.23,VWS V14.01,2013-09-29 10:40:00,
2013-09-29 06:45:00,55.6,52.1,29.88,North,2,2.0,2.0,88,0.00,,CLR,0.23,VWS V14.01,2013-09-29 10:45:00,
2013-09-29 06:50:00,55.4,51.6,29.89,NNW,344,3.0,3.0,87,0.00,,CLR,0.23,VWS V14.01,2013-09-29 10:50:00,
2013-09-29 06:55:00,55.3,51.5,29.89,NNW,335,3.0,5.0,87,0.00,,CLR,0.23,VWS V14.01,2013-09-29 10:55:00,
2013-09-29 07:00:00,55.3,51.5,29.88,NW,308,5.0,5.0,87,0.00,,CLR,0.23,VWS V14.01,2013-09-29 11:00:00,
2013-09-29 07:06:00,55.2,51.4,29.88,NNW,333,2.0,4.0,87,0.00,,CLR,0.23,VWS V14.01,2013-09-29 11:06:00,
2013-09-29 07:11:00,55.1,51.3,29.89,NW,319,5.0,5.0,87,0.00,,CLR,0.23,VWS V14.01,2013-09-29 11:11:00,
2013-09-29 07:16:00,55.1,51.3,29.89,NNW,332,6.0,6.0,87,0.00,,CLR,0.23,VWS V14.01,2013-09-29 11:16:00,
2013-09-29 07:21:00,55.0,51.2,29.90,NNW,346,4.0,4.0,87,0.00,,CLR,0.23,VWS V14.01,2013-09-29 11:21:00,
2013-09-29 07:26:00,54.9,51.1,29.90,NW,310,3.0,3.0,87,0.00,,CLR,0.23,VWS V14.01,2013-09-29 11:26:00,
2013-09-29 07:31:00,54.9,51.1,29.91,NW,313,2.0,3.0,87,0.00,,CLR,0.23,VWS V14.01,2013-09-29 11:31:00,
2013-09-29 07:36:00,54.9,51.4,29.90,NNW,338,2.0,2.0,88,0.00,,CLR,0.23,VWS V14.01,2013-09-29 11:36:00,
2013-09-29 07:41:00,54.8,51.0,29.90,NW,325,2.0,2.0,87,0.00,,CLR,0.23,VWS V14.01,2013-09-29 11:41:00,
2013-09-29 07:46:00,54.6,51.1,29.90,North,353,4.0,5.0,88,0.00,,CLR,0.23,VWS V14.01,2013-09-29 11:46:00,
2013-09-29 07:51:00,54.5,50.7,29.90,NW,325,2.0,2.0,87,0.00,,CLR,0.23,VWS V14.01,2013-09-29 11:51:00,
2013-09-29 07:56:00,54.5,50.7,29.90,North,7,3.0,4.0,87,0.00,,CLR,0.23,VWS V14.01,2013-09-29 11:56:00,
2013-09-29 08:01:00,54.4,50.6,29.90,NNW,346,4.0,6.0,87,0.00,,CLR,0.23,VWS V14.01,2013-09-29 12:01:00,
2013-09-29 08:06:00,54.4,50.6,29.90,NW,311,8.0,11.0,87,0.00,,CLR,0.23,VWS V14.01,2013-09-29 12:06:00,
2013-09-29 08:11:00,54.3,50.5,29.91,North,357,2.0,4.0,87,0.00,,CLR,0.23,VWS V14.01,2013-09-29 12:11:00,
2013-09-29 08:16:00,54.2,50.1,29.91,WNW,284,2.0,3.0,86,0.00,,CLR,0.23,VWS V14.01,2013-09-29 12:16:00,
2013-09-29 08:21:00,54.2,50.1,29.91,North,2,2.0,2.0,86,0.00,,CLR,0.23,VWS V14.01,2013-09-29 12:21:00,
2013-09-29 08:26:00,54.1,50.0,29.91,NNW,338,6.0,8.0,86,0.00,,CLR,0.23,VWS V14.01,2013-09-29 12:26:00,
2013-09-29 08:31:00,54.1,50.0,29.91,North,349,4.0,4.0,86,0.00,,CLR,0.23,VWS V14.01,2013-09-29 12:31:00,
2013-09-29 08:36:00,54.0,49.6,29.91,NNW,345,4.0,6.0,85,0.00,,CLR,0.23,VWS V14.01,2013-09-29 12:36:00,
2013-09-29 08:41:00,53.9,49.5,29.91,NNW,329,5.0,8.0,85,0.00,,CLR,0.23,VWS V14.01,2013-09-29 12:41:00,
2013-09-29 08:46:00,53.9,49.8,29.92,NNW,341,2.0,3.0,86,0.00,,CLR,0.23,VWS V14.01,2013-09-29 12:46:00,
2013-09-29 08:51:00,54.0,49.9,29.92,WNW,301,2.0,3.0,86,0.00,,CLR,0.23,VWS V14.01,2013-09-29 12:51:00,
2013-09-29 08:56:00,54.3,49.9,29.92,NNW,333,4.0,4.0,85,0.00,,CLR,0.23,VWS V14.01,2013-09-29 12:56:00,
2013-09-29 09:01:00,54.7,50.0,29.92,NNW,329,4.0,6.0,84,0.00,,CLR,0.23,VWS V14.01,2013-09-29 13:01:00,
2013-09-29 09:06:00,55.2,50.1,29.93,North,349,9.0,10.0,83,0.00,,CLR,0.23,VWS V14.01,2013-09-29 13:06:00,
2013-09-29 09:11:00,55.4,50.0,29.93,NNW,342,10.0,10.0,82,0.00,,CLR,0.23,VWS V14.01,2013-09-29 13:11:00,
2013-09-29 09:16:00,55.5,49.8,29.93,NNW,348,9.0,10.0,81,0.00,,CLR,0.23,VWS V14.01,2013-09-29 13:16:00,
2013-09-29 09:22:00,55.5,49.8,29.93,NNW,338,5.0,8.0,81,0.00,,CLR,0.23,VWS V14.01,2013-09-29 13:22:00,
2013-09-29 09:27:00,55.6,49.5,29.94,NW,325,8.0,11.0,80,0.00,,CLR,0.23,VWS V14.01,2013-09-29 13:27:00,
2013-09-29 09:31:00,55.5,49.4,29.94,North,357,8.0,11.0,80,0.00,,CLR,0.23,VWS V14.01,2013-09-29 13:31:00,
2013-09-29 09:36:00,55.5,49.1,29.94,NW,319,9.0,11.0,79,0.00,,CLR,0.23,VWS V14.01,2013-09-29 13:36:00,
2013-09-29 09:42:00,55.7,49.3,29.94,NW,325,6.0,6.0,79,0.00,,CLR,0.23,VWS V14.01,2013-09-29 13:42:00,
2013-09-29 09:47:00,56.1,49.0,29.94,West,281,10.0,10.0,77,0.00,,CLR,0.23,VWS V14.01,2013-09-29 13:47:00,
2013-09-29 09:52:00,56.4,49.3,29.94,NW,322,6.0,10.0,77,0.00,,CLR,0.23,VWS V14.01,2013-09-29 13:52:00,
2013-09-29 09:57:00,56.7,48.9,29.95,NW,314,5.0,5.0,75,0.00,,CLR,0.23,VWS V14.01,2013-09-29 13:57:00,
2013-09-29 10:02:00,56.9,48.7,29.95,North,351,3.0,5.0,74,0.00,,CLR,0.23,VWS V14.01,2013-09-29 14:02:00,
2013-09-29 10:07:00,57.2,48.6,29.95,North,2,6.0,10.0,73,0.00,,CLR,0.23,VWS V14.01,2013-09-29 14:07:00,
2013-09-29 10:12:00,57.3,48.7,29.95,NNW,331,4.0,8.0,73,0.00,,CLR,0.23,VWS V14.01,2013-09-29 14:12:00,
2013-09-29 10:17:00,57.4,48.8,29.95,NNW,331,3.0,4.0,73,0.00,,CLR,0.23,VWS V14.01,2013-09-29 14:17:00,
2013-09-29 10:22:00,57.7,49.1,29.95,NNW,328,6.0,7.0,73,0.00,,CLR,0.23,VWS V14.01,2013-09-29 14:22:00,
2013-09-29 10:27:00,58.1,49.5,29.95,NNW,344,5.0,5.0,73,0.00,,CLR,0.23,VWS V14.01,2013-09-29 14:27:00,
2013-09-29 10:32:00,58.1,48.8,29.95,NW,315,2.0,4.0,71,0.00,,CLR,0.23,VWS V14.01,2013-09-29 14:32:00,
2013-09-29 10:37:00,58.2,49.2,29.95,NW,313,5.0,8.0,72,0.00,,CLR,0.23,VWS V14.01,2013-09-29 14:37:00,
2013-09-29 10:42:00,58.2,49.2,29.96,NNW,343,6.0,8.0,72,0.00,,CLR,0.23,VWS V14.01,2013-09-29 14:42:00,
2013-09-29 10:47:00,57.9,48.6,29.96,NNW,338,6.0,8.0,71,0.00,,CLR,0.23,VWS V14.01,2013-09-29 14:47:00,
2013-09-29 10:52:00,58.1,49.5,29.96,NNW,340,3.0,3.0,73,0.00,,CLR,0.23,VWS V14.01,2013-09-29 14:52:00,
2013-09-29 10:57:00,58.3,49.0,29.96,NNE,16,8.0,9.0,71,0.00,,CLR,0.23,VWS V14.01,2013-09-29 14:57:00,
2013-09-29 11:02:00,58.4,48.7,29.96,NW,320,8.0,10.0,70,0.00,,CLR,0.23,VWS V14.01,2013-09-29 15:02:00,
2013-09-29 11:07:00,58.5,48.8,29.96,North,11,4.0,5.0,70,0.00,,CLR,0.23,VWS V14.01,2013-09-29 15:07:00,
2013-09-29 11:12:00,58.4,49.0,29.97,NNW,346,4.0,4.0,71,0.00,,CLR,0.23,VWS V14.01,2013-09-29 15:12:00,
2013-09-29 11:17:00,58.0,49.4,29.96,NNW,331,4.0,6.0,73,0.00,,CLR,0.23,VWS V14.01,2013-09-29 15:17:00,
2013-09-29 11:22:00,58.1,49.1,29.97,NNE,14,4.0,8.0,72,0.00,,CLR,0.23,VWS V14.01,2013-09-29 15:22:00,
2013-09-29 11:27:00,58.2,49.6,29.97,WNW,290,8.0,8.0,73,0.00,,CLR,0.23,VWS V14.01,2013-09-29 15:27:00,
2013-09-29 11:32:00,58.2,49.6,29.97,NW,319,2.0,4.0,73,0.00,,CLR,0.23,VWS V14.01,2013-09-29 15:32:00,
2013-09-29 11:37:00,58.4,49.0,29.97,NW,313,5.0,6.0,71,0.00,,CLR,0.23,VWS V14.01,2013-09-29 15:37:00,
2013-09-29 11:42:00,58.2,49.2,29.97,NW,319,4.0,6.0,72,0.00,,CLR,0.23,VWS V14.01,2013-09-29 15:42:00,
2013-09-29 11:47:00,58.3,49.0,29.97,North,357,5.0,5.0,71,0.00,,CLR,0.23,VWS V14.01,2013-09-29 15:47:00,
2013-09-29 11:52:00,58.3,49.3,29.97,NNE,17,8.0,8.0,72,0.00,,CLR,0.23,VWS V14.01,2013-09-29 15:52:00,
2013-09-29 11:57:00,58.5,49.5,29.97,West,280,9.0,9.0,72,0.00,,CLR,0.23,VWS V14.01,2013-09-29 15:57:00,
2013-09-29 12:02:00,58.7,49.0,29.97,NW,325,4.0,5.0,70,0.00,,CLR,0.23,VWS V14.01,2013-09-29 16:02:00,
2013-09-29 12:07:00,58.5,49.1,29.98,NW,323,12.0,12.0,71,0.00,,CLR,0.23,VWS V14.01,2013-09-29 16:07:00,
2013-09-29 12:12:00,58.5,49.1,29.98,NNW,333,3.0,3.0,71,0.00,,CLR,0.23,VWS V14.01,2013-09-29 16:12:00,
2013-09-29 12:17:00,58.7,49.3,29.98,North,350,5.0,6.0,71,0.00,,CLR,0.23,VWS V14.01,2013-09-29 16:17:00,
2013-09-29 12:22:00,58.9,48.8,29.98,NNW,340,9.0,10.0,69,0.00,,CLR,0.23,VWS V14.01,2013-09-29 16:22:00,
2013-09-29 12:27:00,58.7,49.3,29.98,WNW,296,5.0,7.0,71,0.00,,CLR,0.23,VWS V14.01,2013-09-29 16:27:00,
2013-09-29 12:32:00,58.9,49.2,29.98,North,357,10.0,11.0,70,0.00,,CLR,0.23,VWS V14.01,2013-09-29 16:32:00,
2013-09-29 12:37:00,58.9,49.5,29.99,North,2,14.0,14.0,71,0.00,,CLR,0.23,VWS V14.01,2013-09-29 16:37:00,
2013-09-29 12:42:00,58.6,48.9,29.98,NNW,345,4.0,6.0,70,0.00,,CLR,0.23,VWS V14.01,2013-09-29 16:42:00,
2013-09-29 12:47:00,58.9,49.5,29.99,NNW,338,5.0,9.0,71,0.00,,CLR,0.23,VWS V14.01,2013-09-29 16:47:00,
2013-09-29 12:52:00,58.9,49.2,29.99,WNW,288,6.0,6.0,70,0.00,,CLR,0.23,VWS V14.01,2013-09-29 16:52:00,
2013-09-29 12:57:00,58.9,49.9,29.99,NW,316,3.0,3.0,72,0.00,,CLR,0.23,VWS V14.01,2013-09-29 16:57:00,
2013-09-29 13:02:00,59.0,50.0,29.99,WSW,247,7.0,7.0,72,0.00,,CLR,0.23,VWS V14.01,2013-09-29 17:02:00,
2013-09-29 13:07:00,59.0,49.2,29.99,North,350,4.0,6.0,70,0.00,,CLR,0.23,VWS V14.01,2013-09-29 17:07:00,
2013-09-29 13:12:00,59.1,49.7,29.99,NW,323,8.0,11.0,71,0.00,,CLR,0.23,VWS V14.01,2013-09-29 17:12:00,
2013-09-29 13:17:00,59.1,49.7,29.98,NNW,333,3.0,5.0,71,0.00,,CLR,0.23,VWS V14.01,2013-09-29 17:17:00,
2013-09-29 13:22:00,59.4,50.0,29.99,West,264,8.0,9.0,71,0.00,,CLR,0.23,VWS V14.01,2013-09-29 17:22:00,
2013-09-29 13:27:00,59.6,50.2,29.99,SW,222,4.0,4.0,71,0.00,,CLR,0.23,VWS V14.01,2013-09-29 17:27:00,
2013-09-29 13:32:00,59.8,51.1,29.98,WSW,249,4.0,4.0,73,0.00,,CLR,0.23,VWS V14.01,2013-09-29 17:32:00,
2013-09-29 13:37:00,60.2,50.4,29.98,North,357,4.0,4.0,70,0.00,,CLR,0.23,VWS V14.01,2013-09-29 17:37:00,
2013-09-29 13:42:00,60.6,51.2,29.98,North,11,7.0,7.0,71,0.00,,CLR,0.23,VWS V14.01,2013-09-29 17:42:00,
2013-09-29 13:47:00,60.8,50.6,29.98,West,261,9.0,10.0,69,0.00,,CLR,0.23,VWS V14.01,2013-09-29 17:47:00,
2013-09-29 13:52:00,60.6,50.4,29.98,WNW,287,7.0,8.0,69,0.00,,CLR,0.23,VWS V14.01,2013-09-29 17:52:00,
2013-09-29 13:57:00,60.5,50.3,29.98,NNE,19,7.0,10.0,69,0.00,,CLR,0.23,VWS V14.01,2013-09-29 17:57:00,
2013-09-29 14:02:00,60.6,50.8,29.98,WNW,294,4.0,5.0,70,0.00,,CLR,0.23,VWS V14.01,2013-09-29 18:02:00,
2013-09-29 14:07:00,60.8,51.0,29.98,NNW,336,6.0,8.0,70,0.00,,CLR,0.23,VWS V14.01,2013-09-29 18:07:00,
2013-09-29 14:13:00,60.8,50.6,29.98,West,268,6.0,12.0,69,0.00,,CLR,0.23,VWS V14.01,2013-09-29 18:13:00,
2013-09-29 14:18:00,60.8,50.6,29.98,SW,216,5.0,5.0,69,0.00,,CLR,0.23,VWS V14.01,2013-09-29 18:18:00,
2013-09-29 14:23:00,60.9,50.7,29.98,NW,315,4.0,4.0,69,0.00,,CLR,0.23,VWS V14.01,2013-09-29 18:23:00,
2013-09-29 14:28:00,61.1,50.9,29.98,NW,313,8.0,9.0,69,0.00,,CLR,0.23,VWS V14.01,2013-09-29 18:28:00,
2013-09-29 14:33:00,61.2,51.0,29.98,SSW,212,5.0,6.0,69,0.00,,CLR,0.23,VWS V14.01,2013-09-29 18:33:00,
2013-09-29 14:38:00,61.3,49.9,29.97,WNW,291,3.0,3.0,66,0.00,,CLR,0.23,VWS V14.01,2013-09-29 18:38:00,
2013-09-29 14:43:00,61.4,50.4,29.97,West,261,7.0,8.0,67,0.00,,CLR,0.23,VWS V14.01,2013-09-29 18:43:00,
2013-09-29 14:48:00,61.4,50.0,29.97,NNW,335,5.0,5.0,66,0.00,,CLR,0.23,VWS V14.01,2013-09-29 18:48:00,
2013-09-29 14:53:00,61.5,50.0,29.97,NNW,341,6.0,6.0,66,0.00,,CLR,0.23,VWS V14.01,2013-09-29 18:53:00,
2013-09-29 14:58:00,61.6,50.5,29.97,West,263,7.0,7.0,67,0.00,,CLR,0.23,VWS V14.01,2013-09-29 18:58:00,
2013-09-29 15:03:00,61.6,50.5,29.97,NW,319,3.0,6.0,67,0.00,,CLR,0.23,VWS V14.01,2013-09-29 19:03:00,
2013-09-29 15:08:00,61.7,50.2,29.97,NNW,328,4.0,4.0,66,0.00,,CLR,0.23,VWS V14.01,2013-09-29 19:08:00,
2013-09-29 15:13:00,61.8,49.9,29.97,West,267,8.0,8.0,65,0.00,,CLR,0.23,VWS V14.01,2013-09-29 19:13:00,
2013-09-29 15:18:00,62.0,50.1,29.96,WSW,243,3.0,3.0,65,0.00,,CLR,0.23,VWS V14.01,2013-09-29 19:18:00,
2013-09-29 15:23:00,62.2,49.5,29.96,NW,309,4.0,5.0,63,0.00,,CLR,0.23,VWS V14.01,2013-09-29 19:23:00,
2013-09-29 15:28:00,62.3,49.6,29.96,South,191,5.0,7.0,63,0.00,,CLR,0.23,VWS V14.01,2013-09-29 19:28:00,
2013-09-29 15:33:00,62.5,49.8,29.96,North,357,3.0,3.0,63,0.00,,CLR,0.23,VWS V14.01,2013-09-29 19:33:00,
2013-09-29 15:38:00,62.7,49.9,29.96,WNW,290,5.0,7.0,63,0.00,,CLR,0.23,VWS V14.01,2013-09-29 19:38:00,
2013-09-29 15:43:00,62.9,49.3,29.96,NNW,331,1.0,3.0,61,0.00,,CLR,0.23,VWS V14.01,2013-09-29 19:43:00,
2013-09-29 15:48:00,63.2,49.5,29.96,WNW,299,3.0,4.0,61,0.00,,CLR,0.23,VWS V14.01,2013-09-29 19:48:00,
2013-09-29 15:53:00,63.5,49.8,29.96,WNW,300,4.0,4.0,61,0.00,,CLR,0.23,VWS V14.01,2013-09-29 19:53:00,
2013-09-29 15:58:00,63.5,49.4,29.96,NW,317,1.0,1.0,60,0.00,,CLR,0.23,VWS V14.01,2013-09-29 19:58:00,
2013-09-29 16:03:00,63.5,48.9,29.96,West,276,2.0,3.0,59,0.00,,FEW065,0.23,VWS V14.01,2013-09-29 20:03:00,
2013-09-29 16:08:00,63.6,49.5,29.96,WSW,256,3.0,4.0,60,0.00,,FEW065,0.23,VWS V14.01,2013-09-29 20:08:00,
2013-09-29 16:13:00,63.5,49.4,29.96,NNW,341,2.0,2.0,60,0.00,,FEW065,0.23,VWS V14.01,2013-09-29 20:13:00,
2013-09-29 16:18:00,63.8,48.8,29.96,West,259,3.0,3.0,58,0.00,,FEW065,0.23,VWS V14.01,2013-09-29 20:18:00,
2013-09-29 16:23:00,63.9,48.4,29.96,NNW,334,6.0,6.0,57,0.00,,FEW065,0.23,VWS V14.01,2013-09-29 20:23:00,
2013-09-29 16:28:00,63.9,48.4,29.96,West,268,4.0,4.0,57,0.00,,FEW065,0.23,VWS V14.01,2013-09-29 20:28:00,
2013-09-29 16:33:00,64.0,48.5,29.96,NNW,347,2.0,3.0,57,0.00,,FEW065,0.23,VWS V14.01,2013-09-29 20:33:00,
2013-09-29 16:38:00,64.0,48.5,29.96,West,281,3.0,5.0,57,0.00,,FEW065,0.23,VWS V14.01,2013-09-29 20:38:00,
2013-09-29 16:43:00,64.0,48.0,29.96,NNW,330,5.0,5.0,56,0.00,,FEW065,0.23,VWS V14.01,2013-09-29 20:43:00,
2013-09-29 16:49:00,64.1,48.6,29.96,NNW,341,6.0,6.0,57,0.00,,FEW065,0.23,VWS V14.01,2013-09-29 20:49:00,
2013-09-29 16:54:00,64.0,48.5,29.96,West,263,2.0,3.0,57,0.00,,FEW065,0.23,VWS V14.01,2013-09-29 20:54:00,
2013-09-29 16:59:00,64.0,48.0,29.96,WNW,293,4.0,5.0,56,0.00,,FEW065,0.23,VWS V14.01,2013-09-29 20:59:00,
2013-09-29 17:04:00,63.9,47.4,29.96,SW,230,5.0,5.0,55,0.00,,CLR,0.23,VWS V14.01,2013-09-29 21:04:00,
2013-09-29 17:09:00,63.6,47.6,29.96,SW,236,6.0,6.0,56,0.00,,CLR,0.23,VWS V14.01,2013-09-29 21:09:00,
2013-09-29 17:14:00,63.5,48.0,29.96,WNW,298,5.0,8.0,57,0.00,,CLR,0.23,VWS V14.01,2013-09-29 21:14:00,
2013-09-29 17:19:00,63.6,47.2,29.96,West,262,4.0,6.0,55,0.00,,CLR,0.23,VWS V14.01,2013-09-29 21:19:00,
2013-09-29 17:24:00,63.5,47.5,29.96,NW,308,3.0,3.0,56,0.00,,CLR,0.23,VWS V14.01,2013-09-29 21:24:00,
2013-09-29 17:29:00,63.4,47.5,29.96,North,7,6.0,6.0,56,0.00,,CLR,0.23,VWS V14.01,2013-09-29 21:29:00,
2013-09-29 17:34:00,63.4,47.5,29.96,West,274,2.0,3.0,56,0.00,,CLR,0.23,VWS V14.01,2013-09-29 21:34:00,
2013-09-29 17:39:00,63.3,47.3,29.96,NW,319,6.0,7.0,56,0.00,,CLR,0.23,VWS V14.01,2013-09-29 21:39:00,
2013-09-29 17:44:00,63.2,47.3,29.96,NW,315,3.0,5.0,56,0.00,,CLR,0.23,VWS V14.01,2013-09-29 21:44:00,
2013-09-29 17:49:00,63.0,48.0,29.96,NNW,346,3.0,3.0,58,0.00,,CLR,0.23,VWS V14.01,2013-09-29 21:49:00,
2013-09-29 17:54:00,63.0,48.0,29.96,North,357,4.0,4.0,58,0.00,,CLR,0.23,VWS V14.01,2013-09-29 21:54:00,
2013-09-29 17:59:00,63.1,48.1,29.96,North,350,2.0,2.0,58,0.00,,CLR,0.23,VWS V14.01,2013-09-29 21:59:00,
2013-09-29 18:04:00,63.2,47.7,29.96,WNW,298,1.0,2.0,57,0.00,,CLR,0.23,VWS V14.01,2013-09-29 22:04:00,
2013-09-29 18:09:00,63.2,47.7,29.96,WNW,290,2.0,3.0,57,0.00,,CLR,0.23,VWS V14.01,2013-09-29 22:09:00,
2013-09-29 18:14:00,63.2,48.2,29.96,NNW,329,0.0,0.0,58,0.00,,CLR,0.23,VWS V14.01,2013-09-29 22:14:00,
2013-09-29 18:19:00,63.2,49.1,29.96,West,273,1.0,2.0,60,0.00,,CLR,0.23,VWS V14.01,2013-09-29 22:19:00,
2013-09-29 18:24:00,63.1,48.6,29.96,West,272,1.0,1.0,59,0.00,,CLR,0.23,VWS V14.01,2013-09-29 22:24:00,
2013-09-29 18:29:00,62.9,48.8,29.97,SW,228,0.0,1.0,60,0.00,,CLR,0.23,VWS V14.01,2013-09-29 22:29:00,
2013-09-29 18:34:00,62.7,49.1,29.97,West,260,2.0,2.0,61,0.00,,CLR,0.23,VWS V14.01,2013-09-29 22:34:00,
2013-09-29 18:39:00,62.5,49.8,29.97,West,259,1.0,1.0,63,0.00,,CLR,0.23,VWS V14.01,2013-09-29 22:39:00,
2013-09-29 18:44:00,62.1,49.8,29.97,WNW,283,1.0,1.0,64,0.00,,CLR,0.23,VWS V14.01,2013-09-29 22:44:00,
2013-09-29 18:49:00,61.7,50.2,29.97,WSW,257,1.0,2.0,66,0.00,,CLR,0.23,VWS V14.01,2013-09-29 22:49:00,
2013-09-29 18:54:00,61.0,50.4,29.97,WNW,284,2.0,3.0,68,0.00,,CLR,0.23,VWS V14.01,2013-09-29 22:54:00,
2013-09-29 18:59:00,60.4,50.2,29.98,WSW,246,1.0,3.0,69,0.00,,CLR,0.23,VWS V14.01,2013-09-29 22:59:00,
2013-09-29 19:04:00,59.8,50.0,29.97,West,279,0.0,0.0,70,0.00,,CLR,0.23,VWS V14.01,2013-09-29 23:04:00,
2013-09-29 19:09:00,59.4,50.0,29.97,West,279,1.0,2.0,71,0.00,,CLR,0.23,VWS V14.01,2013-09-29 23:09:00,
2013-09-29 19:14:00,58.9,49.9,29.97,West,281,1.0,2.0,72,0.00,,CLR,0.23,VWS V14.01,2013-09-29 23:14:00,
2013-09-29 19:19:00,58.6,50.3,29.97,West,281,0.0,0.0,74,0.00,,CLR,0.23,VWS V14.01,2013-09-29 23:19:00,
2013-09-29 19:24:00,58.2,50.0,29.97,West,281,1.0,1.0,74,0.00,,CLR,0.23,VWS V14.01,2013-09-29 23:24:00,
2013-09-29 19:29:00,57.5,49.3,29.97,West,281,0.0,0.0,74,0.00,,CLR,0.23,VWS V14.01,2013-09-29 23:29:00,
2013-09-29 19:34:00,57.1,49.3,29.97,West,281,1.0,1.0,75,0.00,,CLR,0.23,VWS V14.01,2013-09-29 23:34:00,
2013-09-29 19:39:00,56.0,49.2,29.97,West,281,1.0,1.0,78,0.00,,CLR,0.23,VWS V14.01,2013-09-29 23:39:00,
2013-09-29 19:44:00,55.6,48.9,29.97,WSW,248,1.0,1.0,78,0.00,,CLR,0.23,VWS V14.01,2013-09-29 23:44:00,
2013-09-29 19:50:00,55.0,48.6,29.98,SSW,211,0.0,0.0,79,0.00,,CLR,0.23,VWS V14.01,2013-09-29 23:50:00,
2013-09-29 19:55:00,54.5,48.5,29.97,South,180,1.0,1.0,80,0.00,,CLR,0.23,VWS V14.01,2013-09-29 23:55:00,
2013-09-29 20:00:00,53.8,48.1,29.98,SE,144,1.0,2.0,81,0.00,,CLR,0.23,VWS V14.01,2013-09-30 00:00:00,
2013-09-29 20:05:00,53.2,47.9,29.97,SE,144,0.0,0.0,82,0.00,,CLR,0.23,VWS V14.01,2013-09-30 00:05:00,
2013-09-29 20:10:00,52.6,47.6,29.98,SE,144,1.0,1.0,83,0.00,,CLR,0.23,VWS V14.01,2013-09-30 00:10:00,
2013-09-29 20:15:00,52.0,47.6,29.98,SE,144,1.0,1.0,85,0.00,,CLR,0.23,VWS V14.01,2013-09-30 00:15:00,
2013-09-29 20:20:00,51.5,47.5,29.98,SSE,155,0.0,1.0,86,0.00,,CLR,0.23,VWS V14.01,2013-09-30 00:20:00,
2013-09-29 20:25:00,51.2,47.2,29.98,SSE,155,0.0,1.0,86,0.00,,CLR,0.23,VWS V14.01,2013-09-30 00:25:00,
2013-09-29 20:30:00,50.7,46.7,29.98,SE,133,0.0,0.0,86,0.00,,CLR,0.23,VWS V14.01,2013-09-30 00:30:00,
2013-09-29 20:35:00,50.2,46.8,29.98,SE,133,0.0,1.0,88,0.00,,CLR,0.23,VWS V14.01,2013-09-30 00:35:00,
2013-09-29 20:40:00,49.9,46.5,29.98,SE,133,0.0,0.0,88,0.00,,CLR,0.23,VWS V14.01,2013-09-30 00:40:00,
2013-09-29 20:45:00,49.5,46.4,29.98,SE,133,1.0,2.0,89,0.00,,CLR,0.23,VWS V14.01,2013-09-30 00:45:00,
2013-09-29 20:50:00,49.1,46.6,29.98,East,98,2.0,2.0,91,0.00,,CLR,0.23,VWS V14.01,2013-09-30 00:50:00,
2013-09-29 20:55:00,48.7,46.2,29.98,East,92,1.0,2.0,91,0.00,,CLR,0.23,VWS V14.01,2013-09-30 00:55:00,
2013-09-29 21:00:00,48.3,46.1,29.98,East,92,1.0,1.0,92,0.00,,CLR,0.23,VWS V14.01,2013-09-30 01:00:00,
2013-09-29 21:05:00,48.1,45.9,29.98,East,92,0.0,1.0,92,0.00,,CLR,0.23,VWS V14.01,2013-09-30 01:05:00,
2013-09-29 21:10:00,48.1,45.9,29.98,East,92,0.0,0.0,92,0.00,,CLR,0.23,VWS V14.01,2013-09-30 01:10:00,
2013-09-29 21:15:00,47.9,45.4,29.98,East,92,0.0,0.0,91,0.00,,CLR,0.23,VWS V14.01,2013-09-30 01:15:00,
2013-09-29 21:20:00,47.6,45.1,29.98,East,92,0.0,1.0,91,0.00,,CLR,0.23,VWS V14.01,2013-09-30 01:20:00,
2013-09-29 21:25:00,47.3,44.8,29.98,East,98,0.0,1.0,91,0.00,,CLR,0.23,VWS V14.01,2013-09-30 01:25:00,
2013-09-29 21:30:00,47.1,44.6,29.99,SSE,158,1.0,1.0,91,0.00,,CLR,0.23,VWS V14.01,2013-09-30 01:30:00,
2013-09-29 21:35:00,46.8,44.3,29.98,SSE,158,0.0,0.0,91,0.00,,CLR,0.23,VWS V14.01,2013-09-30 01:35:00,
2013-09-29 21:40:00,46.7,44.2,29.98,SSE,158,2.0,2.0,91,0.00,,CLR,0.23,VWS V14.01,2013-09-30 01:40:00,
2013-09-29 21:45:00,46.4,44.2,29.98,SSE,158,0.0,0.0,92,0.00,,CLR,0.23,VWS V14.01,2013-09-30 01:45:00,
2013-09-29 21:50:00,46.3,44.1,29.99,SSE,158,1.0,2.0,92,0.00,,CLR,0.23,VWS V14.01,2013-09-30 01:50:00,
2013-09-29 21:55:00,46.0,43.5,29.99,SSE,158,1.0,1.0,91,0.00,,CLR,0.23,VWS V14.01,2013-09-30 01:55:00,
2013-09-29 22:01:00,45.8,43.6,29.98,SSE,158,0.0,1.0,92,0.00,,CLR,0.23,VWS V14.01,2013-09-30 02:01:00,
2013-09-29 22:06:00,45.7,43.8,29.98,SSE,158,1.0,1.0,93,0.00,,CLR,0.23,VWS V14.01,2013-09-30 02:06:00,
2013-09-29 22:11:00,45.7,43.8,29.98,SSE,158,0.0,1.0,93,0.00,,CLR,0.23,VWS V14.01,2013-09-30 02:11:00,
2013-09-29 22:16:00,45.7,44.1,29.98,SSE,153,1.0,1.0,94,0.00,,CLR,0.23,VWS V14.01,2013-09-30 02:16:00,
2013-09-29 22:21:00,45.7,44.1,29.98,SSE,153,1.0,1.0,94,0.00,,CLR,0.23,VWS V14.01,2013-09-30 02:21:00,
2013-09-29 22:26:00,45.5,43.9,29.98,SSE,153,0.0,1.0,94,0.00,,CLR,0.23,VWS V14.01,2013-09-30 02:26:00,
2013-09-29 22:31:00,45.5,43.9,29.98,SSE,153,0.0,0.0,94,0.00,,CLR,0.23,VWS V14.01,2013-09-30 02:31:00,
2013-09-29 22:36:00,45.3,43.4,29.98,SSE,153,1.0,1.0,93,0.00,,CLR,0.23,VWS V14.01,2013-09-30 02:36:00,
2013-09-29 22:41:00,45.1,43.2,29.98,SSE,153,0.0,1.0,93,0.00,,CLR,0.23,VWS V14.01,2013-09-30 02:41:00,
2013-09-29 22:46:00,44.9,43.0,29.98,SE,127,2.0,2.0,93,0.00,,CLR,0.23,VWS V14.01,2013-09-30 02:46:00,
2013-09-29 22:51:00,44.9,43.3,29.98,SE,131,0.0,0.0,94,0.00,,CLR,0.23,VWS V14.01,2013-09-30 02:51:00,
2013-09-29 22:56:00,44.8,43.2,29.98,SE,131,0.0,0.0,94,0.00,,CLR,0.23,VWS V14.01,2013-09-30 02:56:00,
2013-09-29 23:01:00,44.7,43.1,29.98,SE,143,1.0,1.0,94,0.00,,CLR,0.23,VWS V14.01,2013-09-30 03:01:00,
2013-09-29 23:06:00,44.6,43.0,29.98,SE,143,0.0,0.0,94,0.00,,CLR,0.23,VWS V14.01,2013-09-30 03:06:00,
2013-09-29 23:11:00,44.4,42.8,29.99,SE,143,1.0,2.0,94,0.00,,CLR,0.23,VWS V14.01,2013-09-30 03:11:00,
2013-09-29 23:16:00,44.1,42.5,29.99,SE,143,0.0,1.0,94,0.00,,CLR,0.23,VWS V14.01,2013-09-30 03:16:00,
2013-09-29 23:21:00,44.0,42.4,29.99,SE,143,1.0,1.0,94,0.00,,CLR,0.23,VWS V14.01,2013-09-30 03:21:00,
2013-09-29 23:26:00,43.9,42.3,29.99,SE,143,0.0,0.0,94,0.00,,CLR,0.23,VWS V14.01,2013-09-30 03:26:00,
2013-09-29 23:31:00,43.9,42.3,29.98,SE,143,1.0,2.0,94,0.00,,CLR,0.23,VWS V14.01,2013-09-30 03:31:00,
2013-09-29 23:36:00,43.7,42.1,29.98,SE,143,1.0,2.0,94,0.00,,CLR,0.23,VWS V14.01,2013-09-30 03:36:00,
2013-09-29 23:41:00,43.6,42.0,29.99,SE,143,0.0,1.0,94,0.00,,CLR,0.23,VWS V14.01,2013-09-30 03:41:00,
2013-09-29 23:46:00,43.5,41.9,29.98,SE,143,2.0,2.0,94,0.00,,CLR,0.23,VWS V14.01,2013-09-30 03:46:00,
2013-09-29 23:51:00,43.5,41.9,29.98,SE,143,1.0,2.0,94,0.00,,CLR,0.23,VWS V14.01,2013-09-30 03:51:00,
2013-09-29 23:56:00,43.5,42.2,29.98,SE,143,1.0,1.0,95,0.00,,CLR,0.23,VWS V14.01,2013-09-30 03:56:00,